Weather History for Lander, WY

Change the Weather History Date:

Monday, November 25, 2013

  Actual Average Record
Temperature  
Mean Temperature 30 °F 26 °F  
Max Temperature 43 °F 37 °F 67 °F (1949)
Min Temperature 17 °F 15 °F -15 °F (1993)
Degree Days  
Heating Degree Days 35 39  
Month to date heating degree days 789 810  
Since 1 July heating degree days 1734 1671  
Cooling Degree Days 0 0  
Month to date cooling degree days 0 0  
Year to date cooling degree days 743 472  
Moisture  
Dew Point 17 °F    
Average Humidity 60    
Maximum Humidity 81    
Minimum Humidity 39    
Precipitation  
Precipitation 0.00 in 0.03 in 0.56 in (1983)
Month to date precipitation 0.13 0.74  
Year to date precipitation 14.85 11.96  
Sea Level Pressure  
Sea Level Pressure 30.35 in    
Wind  
Wind Speed 3 mph (West)    
Max Wind Speed 12 mph    
Max Gust Speed 14 mph    
Visibility 10 miles    
Events      
T = Trace of Precipitation, MM = Missing Value Source: NWS Daily Summary

Daily Weather History Graph

Daily Weather History Graph

Search for Another Location

Airport:

Trip Planner

Search our weather history database for the weather conditions in past years. The results will help you decide how hot, cold, wet, or windy it might be!

Date:

Astronomy

Nov. 25, 2013 Rise Set
Actual Time 7:19 AM MST 4:44 PM MST
Civil Twilight 6:48 AM MST 5:15 PM MST
Nautical Twilight 6:13 AM MST 5:50 PM MST
Astronomical Twilight 5:39 AM MST 6:24 PM MST
Moon No Moon Rise 12:32 PM MST (11/25)
Length of Visible Light 10h 27m
Length of Day
9h 24m
Waning Gibbous, 50% of the Moon is Illuminated
Nov 25
Waning Gibbous
Nov 25
Last Quarter
Dec 2
New
Dec 9
First Quarter
Dec 17
Full

Hourly Weather History & Observations

Time (MST) Temp. Windchill Dew Point Humidity Pressure Visibility Wind Dir Wind Speed Gust Speed Precip Events Conditions
12:53 AM 23.0 °F 18.4 °F 15.1 °F 72% 30.27 in 10.0 mi East 3.5 mph - N/A   Clear
1:53 AM 24.1 °F - 15.1 °F 69% 30.26 in 10.0 mi Calm Calm - N/A   Clear
2:53 AM 21.0 °F 16.2 °F 14.0 °F 74% 30.27 in 10.0 mi NNW 3.5 mph - N/A   Clear
3:53 AM 21.9 °F - 14.0 °F 72% 30.27 in 10.0 mi Calm Calm - N/A   Scattered Clouds
4:53 AM 23.0 °F - 14.0 °F 68% 30.30 in 10.0 mi Calm Calm - N/A   Clear
5:53 AM 24.1 °F - 14.0 °F 65% 30.30 in 10.0 mi Calm Calm - N/A   Partly Cloudy
6:53 AM 21.0 °F - 12.9 °F 71% 30.35 in 10.0 mi Calm Calm - N/A   Clear
7:53 AM 21.0 °F 14.6 °F 14.0 °F 74% 30.37 in 10.0 mi NW 4.6 mph - N/A   Clear
8:53 AM 24.1 °F - 16.0 °F 71% 30.39 in 10.0 mi Calm Calm - N/A   Clear
9:53 AM 27.0 °F - 18.0 °F 69% 30.39 in 10.0 mi Calm Calm - N/A   Clear
10:53 AM 33.1 °F 28.7 °F 18.0 °F 54% 30.36 in 10.0 mi NNW 4.6 mph - N/A   Clear
11:53 AM 37.0 °F 34.5 °F 18.0 °F 46% 30.34 in 10.0 mi North 3.5 mph - N/A   Clear
12:53 PM 39.9 °F - 19.9 °F 45% 30.31 in 10.0 mi Calm Calm - N/A   Clear
1:53 PM 42.1 °F - 19.9 °F 41% 30.28 in 10.0 mi Calm Calm - N/A   Clear
2:53 PM 41.0 °F 35.2 °F 23.0 °F 49% 30.30 in 10.0 mi East 9.2 mph - N/A   Clear
3:53 PM 39.0 °F 36.8 °F 21.0 °F 49% 30.32 in 10.0 mi East 3.5 mph - N/A   Clear
4:53 PM 33.1 °F 27.7 °F 19.9 °F 59% 30.36 in 10.0 mi West 5.8 mph - N/A   Clear
5:53 PM 30.9 °F 22.2 °F 19.9 °F 64% 30.39 in 10.0 mi WSW 10.4 mph - N/A   Clear
6:53 PM 30.0 °F 21.1 °F 19.0 °F 64% 30.41 in 10.0 mi WSW 10.4 mph - N/A   Clear
7:53 PM 28.9 °F 23.9 °F 18.0 °F 64% 30.44 in 10.0 mi SSW 4.6 mph - N/A   Clear
8:53 PM 27.0 °F 20.5 °F 18.0 °F 69% 30.44 in 10.0 mi SW 5.8 mph - N/A   Clear
9:53 PM 23.0 °F - 17.1 °F 78% 30.46 in 10.0 mi Calm Calm - N/A   Clear
10:53 PM 26.1 °F 21.9 °F 17.1 °F 69% 30.44 in 10.0 mi South 3.5 mph - N/A   Clear
11:53 PM 27.0 °F - 18.0 °F 69% 30.44 in 10.0 mi Calm Calm - N/A   Clear